Starlink 4756

operational
NORAD ID: 53826 Int'l Des: 2022-114 Owner: SPXS Country: US Constellation: starlink
LEOCIRCULAR

Starlink 4756について

説明を読み込み中...

リアルタイム位置

3D地球を読み込み中...

次回通過

高度履歴

Altitude vs Time

uPlot chart will show altitude changes over time

軌道要素

1 53826U 22114J 25351.29685061 .00000847 00000-0 71279-4 0 9996
2 53826 53.2194 313.9423 0001441 86.5593 273.5564 15.08846155180397
Epoch: Dec 17, 2025 • Age: 7 hours

現在のステータス

高度 549.9 km
速度 7.59 km/s
衛星直下点 -30.91°S, 144.26°W
打ち上げ日 Sep 19, 2022
運用期間 3.2 years
タイプ internet

技術仕様

分類 Payload
質量 305.00 kg
乾燥質量 290.00 kg
総質量 305.00 kg
長さ 0.20 m
直径 2.80 m
スパン 9.00 m
形状 Box + pan
製造者 SPXS
バスタイプ Starlink
フェーズステータス In Orbit
所有者/国 SPXS/US

大規模コンステレーション

Loading constellations...